Regional Weather Roundup
Issued by NWS

Home | Current Version | Previous Version | Text Only | Print | Product List | Glossary On
Versions: 1 2 3 4 5 6 7 8 9 10 11 12 13 14 15 16 17 18 19 20 21 22 23 24 25 26 27 28 29 30 31 32 33 34 35 36 37 38 39 40 41 42 43 44 45 46 47 48 49 50
000
ASUS44 KLIX 171410
RWRLA
LOUISIANA WEATHER ROUNDUP
NATIONAL WEATHER SERVICE NEW ORLEANS LA
900 AM CDT THU APR 17 2014

NOTE: "FAIR" INDICATES FEW OR NO CLOUDS BELOW 12,000 FEET WITH NO
      SIGNIFICANT WEATHER AND/OR OBSTRUCTIONS TO VISIBILITY.
      SKY/WX - SKY CONDITION AND SIGNIFICANT WEATHER.
      TMP - AIR TEMPERATURE.    DP   - DEWPOINT TEMPERATURE.
      RH  - RELATIVE HUMIDITY.  PRES - PRESSURE.
      HX  - HEAT INDEX.         WCI  - WIND CHILL INDEX.

*  THESE STATIONS ARE NOT NWS OR FAA STATIONS AND ARE NOT UNDER
   NWS QUALITY CONTROL.

LAZ040-048-061>063-065-066-069-171500-
SOUTHEAST LOUISIANA

CITY           SKY/WX    TMP DP  RH WIND       PRES   REMARKS
N.O. AUDUBON     N/A     64 N/A N/A MISG        N/A
N.O. INTL ARPT PTSUNNY   62  54  74 NE12      30.17F
N.O. LAKEFRONT CLOUDY    59  53  80 NE14      30.18S
N.O. DOWNTOWN* PTSUNNY   61  48  63 NE9       30.18S
SLIDELL        CLOUDY    57  49  74 N7        30.19S
BATON ROUGE    PTSUNNY   58  49  72 NE9       30.18F
BOOTHVILLE     MOSUNNY   66  57  72 VRB5      30.16S
BELLE CHASSE   PTSUNNY   63  54  72 NE15      30.17S
BOGALUSA*        N/A     56  49  79 NE5       30.23S
GALLIANO*      CLOUDY    65  56  72 NE8       30.15R
NEW ROADS*     CLOUDY    57  49  76 NE9       30.19S
GONZALES*      PTSUNNY   58  51  78 NE10      30.17S
HAMMOND*       PTSUNNY   57  48  72 NE8       30.20F
HOUMA*         PTSUNNY   63  54  72 NE7       30.15R
PORT FOURCHON* CLOUDY    66  57  72 E12       30.15S

$$

LAZ041-044-053-054-171500-
SOUTHWEST LOUISIANA

CITY           SKY/WX    TMP DP  RH WIND       PRES   REMARKS
LAKE CHARLES   PTSUNNY   57  50  77 E8        30.15R
LAFAYETTE      CLOUDY    55  51  86 NE5       30.18R
PATTERSON      CLOUDY    61  52  72 NE8         N/A
SALT POINT       N/A     62  53  72 VRB3      30.14S
NEW IBERIA     CLOUDY    59  52  77 NE7       30.17S
CHENAULT AIRPK NOT AVBL

$$

LAZ027-028-171500-
CENTRAL LOUISIANA

CITY           SKY/WX    TMP DP  RH WIND       PRES   REMARKS
FORT POLK      PTSUNNY   54  47  77 E6        30.16F
ALEXANDRIA INT PTSUNNY   55  48  77 E3        30.17F
ALEXANDRIA     MOSUNNY   57  49  74 E5        30.19S

$$

LAZ001-002-171500-
NORTHWEST LOUISIANA

CITY           SKY/WX    TMP DP  RH WIND       PRES   REMARKS
SHREVEPORT     CLOUDY    53  47  79 E3        30.19R
BARKSDALE AFB  CLOUDY    51  45  82 E1        30.20R
DTN SHREVEPORT CLOUDY    51  45  79 E3        30.20R

$$

LAZ014-016-171500-
NORTHEAST LOUISIANA

CITY           SKY/WX    TMP DP  RH WIND       PRES   REMARKS
MONROE         PTSUNNY   55  46  71 CALM      30.24R
TALLULAH       MOSUNNY   54  47  77 E8        30.24S

$$




USA.gov is the U.S. government's official web portal to all federal, state and local government web resources and services.